Location: Aufkirchen
(47.9603°N, 11.3653°E)
Time: 00:26:53
(UTC+01:00)

Transit 2A Rocket - Pass Details

Date: 06 December 2020
Orbit: 592 x 911 km, 66.7° (Epoch: 20 January)

Event Time Altitude Azimuth Distance (km) Brightness Sun altitude
Rises 02:56:55 0° 269° (W) 3,437 - -47.6°
Reaches altitude 10° 03:00:18 10° 288° (WNW) 2,449 - -47.0°
Maximum altitude 03:04:05 18° 330° (NNW) 1,886 - -46.5°
Drops below altitude 10° 03:07:41 10° 13° (NNE) 2,313 - -45.9°
Exits shadow 03:09:57 - 28° (NNE) 2,925 8.4 -45.5°
Sets 03:10:46 0° 32° (NNE) 3,173 8.7 -45.4°
